JOH635 EFRO-EFKU

Flight info

Callsign JOH635
Flight time 1h 2m
Altitude 31000
Route RENVI Y86 EVSET T95 ETROD DCT UGLUM
Aircraft SF50/L-SDGRWY/L

Departure

Time 2026-04-20 07:05
Airport Rovaniemi Airport (EFRO)

Arrival

Time 2026-04-20 08:07
Airport Kuopio Airport (EFKU)
Time Latitude Longitude Altitude Speed Heading
2026-04-20 06:52 66.55946 25.83388 634 ft 0 kts 169°
2026-04-20 06:56 66.55953 25.83384 634 ft 4 kts 169°
2026-04-20 06:56 66.55981 25.83368 634 ft 3 kts 161°
2026-04-20 06:56 66.55993 25.83346 634 ft 1 kts 114°
2026-04-20 06:57 66.55992 25.83313 635 ft 2 kts 63°
2026-04-20 06:57 66.55989 25.83301 635 ft 0 kts 50°
2026-04-20 06:59 66.55990 25.83302 635 ft 0 kts 50°
2026-04-20 06:59 66.56002 25.83330 634 ft 4 kts 38°
2026-04-20 06:59 66.56032 25.83388 633 ft 6 kts 32°
2026-04-20 07:00 66.56079 25.83390 633 ft 6 kts 331°
2026-04-20 07:00 66.56104 25.83316 635 ft 4 kts 302°
2026-04-20 07:00 66.56123 25.83239 636 ft 5 kts 303°
2026-04-20 07:00 66.56155 25.83117 639 ft 11 kts 304°
2026-04-20 07:01 66.56217 25.83078 640 ft 11 kts 41°
2026-04-20 07:01 66.56300 25.83227 639 ft 17 kts 37°
2026-04-20 07:01 66.56411 25.83439 637 ft 20 kts 36°
2026-04-20 07:01 66.56536 25.83679 635 ft 23 kts 36°
2026-04-20 07:02 66.56664 25.83917 631 ft 23 kts 36°
2026-04-20 07:02 66.56800 25.84178 624 ft 25 kts 38°
2026-04-20 07:02 66.56941 25.84449 619 ft 24 kts 38°
2026-04-20 07:02 66.57077 25.84685 613 ft 22 kts 10°
2026-04-20 07:03 66.57172 25.84523 618 ft 13 kts 301°
2026-04-20 07:03 66.57172 25.84354 621 ft 7 kts 219°
2026-04-20 07:03 66.57146 25.84302 622 ft 1 kts 218°
2026-04-20 07:03 66.57142 25.84294 622 ft 2 kts 218°
2026-04-20 07:04 66.56928 25.83900 633 ft 71 kts 219°
2026-04-20 07:04 66.56386 25.82858 659 ft 121 kts 218°
2026-04-20 07:04 66.55691 25.81665 945 ft 119 kts 206°
2026-04-20 07:04 66.54776 25.81253 1048 ft 146 kts 179°
2026-04-20 07:05 66.53782 25.82369 1275 ft 164 kts 141°
2026-04-20 07:05 66.52829 25.84183 1483 ft 178 kts 149°
2026-04-20 07:05 66.51746 25.85846 2020 ft 167 kts 146°
2026-04-20 07:05 66.51090 25.86718 3145 ft 103 kts 174°
2026-04-20 07:06 66.50302 25.86350 3187 ft 132 kts 205°
2026-04-20 07:06 66.49334 25.85281 3234 ft 167 kts 204°
2026-04-20 07:06 66.48184 25.84139 3656 ft 179 kts 202°
2026-04-20 07:06 66.47000 25.83073 4211 ft 183 kts 201°
2026-04-20 07:07 66.45789 25.82051 4782 ft 184 kts 200°
2026-04-20 07:07 66.44586 25.81077 5329 ft 186 kts 200°
2026-04-20 07:07 66.43352 25.80101 5874 ft 187 kts 199°
2026-04-20 07:07 66.42105 25.79131 6407 ft 189 kts 199°
2026-04-20 07:08 66.40853 25.78166 6925 ft 190 kts 199°
2026-04-20 07:08 66.39605 25.77209 7427 ft 191 kts 199°
2026-04-20 07:08 66.38323 25.76231 7927 ft 193 kts 199°
2026-04-20 07:08 66.37028 25.75245 8417 ft 194 kts 199°
2026-04-20 07:09 66.35729 25.74257 8895 ft 196 kts 200°
2026-04-20 07:09 66.34422 25.73267 9360 ft 197 kts 200°
2026-04-20 07:09 66.33098 25.72263 9819 ft 198 kts 200°
2026-04-20 07:09 66.31785 25.71270 10260 ft 200 kts 200°
2026-04-20 07:10 66.30451 25.70262 10696 ft 201 kts 200°
2026-04-20 07:10 66.29105 25.69246 11123 ft 202 kts 200°
2026-04-20 07:10 66.27750 25.68225 11540 ft 204 kts 200°
2026-04-20 07:10 66.26399 25.67207 11945 ft 205 kts 200°
2026-04-20 07:11 66.25024 25.66172 12345 ft 206 kts 200°
2026-04-20 07:11 66.23651 25.65141 12733 ft 208 kts 200°
2026-04-20 07:11 66.22253 25.64092 13117 ft 209 kts 200°
2026-04-20 07:11 66.20845 25.63036 13492 ft 210 kts 200°
2026-04-20 07:12 66.19418 25.61968 13863 ft 212 kts 200°
2026-04-20 07:12 66.18001 25.60907 14221 ft 213 kts 200°
2026-04-20 07:12 66.16560 25.59831 14574 ft 214 kts 200°
2026-04-20 07:12 66.15111 25.58750 14921 ft 215 kts 200°
2026-04-20 07:13 66.13680 25.57684 15253 ft 216 kts 200°
2026-04-20 07:13 66.12212 25.56591 15584 ft 218 kts 200°
2026-04-20 07:13 66.10745 25.55500 15906 ft 219 kts 200°
2026-04-20 07:13 66.09285 25.54416 16221 ft 220 kts 200°
2026-04-20 07:14 66.07785 25.53481 16523 ft 223 kts 190°
2026-04-20 07:14 66.06210 25.53205 16830 ft 225 kts 186°
2026-04-20 07:14 66.04644 25.53050 17119 ft 227 kts 186°
2026-04-20 07:14 66.03071 25.52925 17406 ft 228 kts 185°
2026-04-20 07:15 66.01469 25.52813 17688 ft 229 kts 185°
2026-04-20 07:15 65.99884 25.52710 17960 ft 230 kts 185°
2026-04-20 07:15 65.98286 25.52610 18230 ft 231 kts 185°
2026-04-20 07:15 65.96659 25.52510 18494 ft 232 kts 185°
2026-04-20 07:16 65.95058 25.52412 18751 ft 233 kts 185°
2026-04-20 07:16 65.93424 25.52313 19004 ft 234 kts 185°
2026-04-20 07:16 65.91793 25.52214 19250 ft 235 kts 185°
2026-04-20 07:16 65.90162 25.52116 19492 ft 236 kts 185°
2026-04-20 07:17 65.88521 25.52017 19731 ft 237 kts 185°
2026-04-20 07:17 65.86879 25.51918 19959 ft 238 kts 185°
2026-04-20 07:17 65.85210 25.51818 20192 ft 239 kts 185°
2026-04-20 07:17 65.83557 25.51719 20413 ft 240 kts 185°
2026-04-20 07:18 65.81899 25.51620 20632 ft 240 kts 185°
2026-04-20 07:18 65.80235 25.51520 20845 ft 241 kts 185°
2026-04-20 07:18 65.78555 25.51420 21055 ft 242 kts 185°
2026-04-20 07:18 65.76879 25.51320 21259 ft 243 kts 185°
2026-04-20 07:19 65.75169 25.51218 21468 ft 244 kts 185°
2026-04-20 07:19 65.73489 25.51118 21659 ft 245 kts 185°
2026-04-20 07:19 65.71769 25.51016 21858 ft 245 kts 185°
2026-04-20 07:19 65.70064 25.50914 22046 ft 246 kts 185°
2026-04-20 07:20 65.68363 25.50813 22232 ft 247 kts 185°
2026-04-20 07:20 65.66651 25.50712 22411 ft 248 kts 185°
2026-04-20 07:20 65.64917 25.50609 22594 ft 248 kts 185°
2026-04-20 07:20 65.63191 25.50508 22763 ft 249 kts 185°
2026-04-20 07:21 65.61451 25.50405 22940 ft 250 kts 185°
2026-04-20 07:21 65.59714 25.50303 23106 ft 251 kts 185°
2026-04-20 07:21 65.57951 25.50199 23274 ft 251 kts 185°
2026-04-20 07:21 65.56199 25.50096 23431 ft 252 kts 185°
2026-04-20 07:22 65.54452 25.49994 23589 ft 253 kts 185°
2026-04-20 07:22 65.52673 25.49889 23748 ft 253 kts 185°
2026-04-20 07:22 65.50912 25.49786 23897 ft 254 kts 185°
2026-04-20 07:22 65.49146 25.49683 24041 ft 255 kts 185°
2026-04-20 07:23 65.47392 25.49581 24190 ft 255 kts 185°
2026-04-20 07:23 65.45603 25.49477 24327 ft 256 kts 185°
2026-04-20 07:23 65.43813 25.49372 24416 ft 259 kts 185°
2026-04-20 07:23 65.42003 25.49266 24425 ft 265 kts 185°
2026-04-20 07:24 65.40149 25.49158 24426 ft 270 kts 185°
2026-04-20 07:24 65.38261 25.49049 24426 ft 274 kts 185°
2026-04-20 07:24 65.36344 25.48939 24425 ft 277 kts 185°
2026-04-20 07:24 65.34392 25.48826 24425 ft 279 kts 185°
2026-04-20 07:25 65.32446 25.48715 24425 ft 281 kts 185°
2026-04-20 07:25 65.30507 25.48603 24425 ft 282 kts 185°
2026-04-20 07:25 65.28532 25.48488 24425 ft 284 kts 185°
2026-04-20 07:25 65.26564 25.48374 24425 ft 285 kts 185°
2026-04-20 07:26 65.24596 25.48259 24424 ft 285 kts 185°
2026-04-20 07:26 65.22586 25.48143 24424 ft 286 kts 185°
2026-04-20 07:26 65.20619 25.48029 24424 ft 287 kts 185°
2026-04-20 07:26 65.18621 25.47913 24424 ft 287 kts 185°
2026-04-20 07:27 65.16622 25.47797 24424 ft 288 kts 185°
2026-04-20 07:27 65.14613 25.47681 24424 ft 288 kts 185°
2026-04-20 07:27 65.12630 25.47567 24424 ft 289 kts 185°
2026-04-20 07:27 65.10614 25.47452 24424 ft 289 kts 185°
2026-04-20 07:28 65.08610 25.47339 24424 ft 289 kts 185°
2026-04-20 07:28 65.06603 25.47226 24424 ft 289 kts 185°
2026-04-20 07:28 65.04589 25.47113 24424 ft 290 kts 185°
2026-04-20 07:28 65.02608 25.47001 24424 ft 290 kts 185°
2026-04-20 07:29 65.00593 25.46967 24418 ft 292 kts 177°
2026-04-20 07:29 64.98654 25.48495 24429 ft 297 kts 155°
2026-04-20 07:29 64.96934 25.51146 24427 ft 299 kts 146°
2026-04-20 07:29 64.95297 25.54222 24425 ft 300 kts 143°
2026-04-20 07:30 64.93716 25.57401 24424 ft 300 kts 142°
2026-04-20 07:30 64.92139 25.60646 24424 ft 301 kts 141°
2026-04-20 07:30 64.90572 25.63894 24424 ft 301 kts 141°
2026-04-20 07:30 64.89017 25.67125 24424 ft 301 kts 141°
2026-04-20 07:31 64.87437 25.70405 24424 ft 301 kts 141°
2026-04-20 07:31 64.85882 25.73629 24425 ft 301 kts 141°
2026-04-20 07:31 64.84304 25.76895 24425 ft 301 kts 141°
2026-04-20 07:31 64.82725 25.80158 24425 ft 301 kts 141°
2026-04-20 07:32 64.81163 25.83381 24425 ft 301 kts 141°
2026-04-20 07:32 64.79600 25.86600 24425 ft 301 kts 141°
2026-04-20 07:32 64.78020 25.89849 24425 ft 301 kts 141°
2026-04-20 07:32 64.76451 25.93073 24425 ft 301 kts 141°
2026-04-20 07:33 64.74887 25.96279 24425 ft 301 kts 141°
2026-04-20 07:33 64.73302 25.99522 24425 ft 301 kts 141°
2026-04-20 07:33 64.71723 26.02750 24425 ft 301 kts 141°
2026-04-20 07:33 64.70157 26.05946 24425 ft 302 kts 141°
2026-04-20 07:34 64.68580 26.09158 24425 ft 302 kts 141°
2026-04-20 07:34 64.66998 26.12374 24425 ft 302 kts 141°
2026-04-20 07:34 64.65486 26.15755 24426 ft 302 kts 136°
2026-04-20 07:35 64.62569 26.22800 24425 ft 303 kts 136°
2026-04-20 07:35 64.61107 26.26343 24426 ft 303 kts 135°
2026-04-20 07:35 64.59644 26.29883 24426 ft 303 kts 135°
2026-04-20 07:35 64.58192 26.33396 24426 ft 303 kts 135°
2026-04-20 07:36 64.56736 26.36910 24426 ft 303 kts 135°
2026-04-20 07:36 64.55278 26.40422 24426 ft 303 kts 135°
2026-04-20 07:36 64.53819 26.43933 24423 ft 303 kts 135°
2026-04-20 07:36 64.52355 26.47449 24420 ft 303 kts 135°
2026-04-20 07:37 64.50877 26.50994 24416 ft 303 kts 135°
2026-04-20 07:37 64.49414 26.54495 24412 ft 303 kts 135°
2026-04-20 07:37 64.47954 26.57987 24408 ft 304 kts 135°
2026-04-20 07:37 64.46488 26.61484 24404 ft 304 kts 135°
2026-04-20 07:38 64.45016 26.64990 24400 ft 304 kts 135°
2026-04-20 07:38 64.43539 26.68504 24398 ft 304 kts 136°
2026-04-20 07:38 64.42069 26.71995 24397 ft 304 kts 136°
2026-04-20 07:38 64.40604 26.75467 24398 ft 303 kts 136°
2026-04-20 07:39 64.39123 26.78971 24398 ft 303 kts 136°
2026-04-20 07:39 64.37646 26.82461 24398 ft 303 kts 136°
2026-04-20 07:39 64.36194 26.85889 24398 ft 303 kts 136°
2026-04-20 07:39 64.34721 26.89362 24398 ft 303 kts 136°
2026-04-20 07:40 64.33240 26.92843 24398 ft 303 kts 136°
2026-04-20 07:40 64.31760 26.96320 24398 ft 303 kts 136°
2026-04-20 07:40 64.30286 26.99777 24398 ft 303 kts 136°
2026-04-20 07:40 64.28803 27.03249 24398 ft 304 kts 136°
2026-04-20 07:41 64.27338 27.06673 24398 ft 304 kts 137°
2026-04-20 07:41 64.25854 27.10136 24398 ft 305 kts 137°
2026-04-20 07:41 64.24362 27.13611 24398 ft 305 kts 137°
2026-04-20 07:41 64.22871 27.17078 24399 ft 306 kts 137°
2026-04-20 07:42 64.21371 27.20564 24399 ft 306 kts 137°
2026-04-20 07:42 64.19870 27.24042 24129 ft 309 kts 137°
2026-04-20 07:42 64.18360 27.27535 23799 ft 311 kts 137°
2026-04-20 07:42 64.16833 27.31064 23462 ft 312 kts 137°
2026-04-20 07:43 64.15305 27.34590 23122 ft 313 kts 137°
2026-04-20 07:43 64.13757 27.38151 22776 ft 313 kts 137°
2026-04-20 07:43 64.12222 27.41678 22432 ft 314 kts 137°
2026-04-20 07:43 64.10674 27.45229 22084 ft 314 kts 137°
2026-04-20 07:44 64.09135 27.48753 21738 ft 314 kts 137°
2026-04-20 07:44 64.07600 27.52261 21393 ft 314 kts 137°
2026-04-20 07:44 64.06064 27.55770 21047 ft 312 kts 137°
2026-04-20 07:44 64.04531 27.59262 20702 ft 311 kts 137°
2026-04-20 07:45 64.03001 27.62746 20358 ft 309 kts 137°
2026-04-20 07:45 64.01479 27.66200 20015 ft 308 kts 138°
2026-04-20 07:45 63.99985 27.69590 19677 ft 307 kts 138°
2026-04-20 07:45 63.98457 27.73050 19332 ft 306 kts 138°
2026-04-20 07:46 63.96964 27.76370 19033 ft 302 kts 142°
2026-04-20 07:46 63.95142 27.78526 18750 ft 291 kts 167°
2026-04-20 07:46 63.93188 27.79149 18466 ft 284 kts 182°
2026-04-20 07:46 63.91234 27.79013 18169 ft 281 kts 188°
2026-04-20 07:47 63.89290 27.78593 17862 ft 280 kts 190°
2026-04-20 07:47 63.87351 27.78063 17549 ft 279 kts 191°
2026-04-20 07:47 63.85446 27.77499 17236 ft 278 kts 191°
2026-04-20 07:47 63.83525 27.76915 16917 ft 278 kts 191°
2026-04-20 07:48 63.81615 27.76328 16599 ft 278 kts 191°
2026-04-20 07:48 63.79714 27.75741 16280 ft 277 kts 191°
2026-04-20 07:48 63.77813 27.75155 15961 ft 277 kts 191°
2026-04-20 07:48 63.75906 27.74568 15640 ft 276 kts 191°
2026-04-20 07:49 63.73995 27.73979 15318 ft 276 kts 191°
2026-04-20 07:49 63.72110 27.73399 15000 ft 275 kts 191°
2026-04-20 07:49 63.70196 27.72811 14677 ft 274 kts 191°
2026-04-20 07:49 63.68307 27.72232 14358 ft 274 kts 191°
2026-04-20 07:50 63.66428 27.71656 14041 ft 273 kts 191°
2026-04-20 07:50 63.64566 27.71086 13727 ft 273 kts 191°
2026-04-20 07:50 63.62674 27.70508 13408 ft 272 kts 191°
2026-04-20 07:50 63.60806 27.69938 13092 ft 271 kts 191°
2026-04-20 07:51 63.58949 27.69372 12779 ft 271 kts 191°
2026-04-20 07:51 63.57091 27.68806 12466 ft 270 kts 191°
2026-04-20 07:51 63.55234 27.68242 12152 ft 268 kts 191°
2026-04-20 07:51 63.53403 27.67686 11843 ft 265 kts 191°
2026-04-20 07:52 63.51584 27.67135 11538 ft 263 kts 191°
2026-04-20 07:52 63.49781 27.66589 11237 ft 261 kts 191°
2026-04-20 07:52 63.47978 27.66040 10935 ft 260 kts 191°
2026-04-20 07:52 63.46196 27.65498 10637 ft 259 kts 191°
2026-04-20 07:53 63.44407 27.64958 10422 ft 256 kts 191°
2026-04-20 07:53 63.42681 27.64441 10390 ft 247 kts 190°
2026-04-20 07:53 63.40984 27.64780 10360 ft 246 kts 169°
2026-04-20 07:53 63.39378 27.65987 10363 ft 241 kts 163°
2026-04-20 07:54 63.37803 27.67354 10364 ft 244 kts 162°
2026-04-20 07:54 63.36224 27.68736 10365 ft 248 kts 162°
2026-04-20 07:54 63.34602 27.70154 10364 ft 250 kts 162°
2026-04-20 07:54 63.32986 27.71565 10364 ft 253 kts 162°
2026-04-20 07:55 63.31341 27.73000 10365 ft 255 kts 162°
2026-04-20 07:55 63.29686 27.74440 10121 ft 258 kts 162°
2026-04-20 07:55 63.28001 27.75906 9823 ft 261 kts 162°
2026-04-20 07:55 63.26304 27.77381 9521 ft 262 kts 162°
2026-04-20 07:56 63.24601 27.78857 9218 ft 263 kts 162°
2026-04-20 07:56 63.22915 27.80319 8919 ft 264 kts 162°
2026-04-20 07:56 63.21198 27.81805 8611 ft 264 kts 162°
2026-04-20 07:56 63.19476 27.83291 8305 ft 265 kts 161°
2026-04-20 07:57 63.17780 27.84755 8004 ft 264 kts 161°
2026-04-20 07:57 63.16053 27.86244 7696 ft 262 kts 161°
2026-04-20 07:57 63.14370 27.87694 7394 ft 261 kts 161°
2026-04-20 07:57 63.12688 27.89140 7093 ft 259 kts 161°
2026-04-20 07:58 63.11016 27.90576 6794 ft 258 kts 161°
2026-04-20 07:58 63.09360 27.91995 6497 ft 257 kts 161°
2026-04-20 07:58 63.07692 27.93424 6200 ft 257 kts 160°
2026-04-20 07:58 63.06016 27.94860 5901 ft 256 kts 161°
2026-04-20 07:59 63.04351 27.96282 5555 ft 258 kts 160°
2026-04-20 07:59 63.02686 27.97772 5174 ft 257 kts 159°
2026-04-20 07:59 63.01049 27.99275 4832 ft 254 kts 158°
2026-04-20 07:59 62.99438 28.00756 4514 ft 250 kts 159°
2026-04-20 08:00 62.97854 28.02210 4213 ft 247 kts 159°
2026-04-20 08:00 62.96278 28.03651 3923 ft 244 kts 158°
2026-04-20 08:00 62.94712 28.05087 3639 ft 242 kts 158°
2026-04-20 08:00 62.93179 28.06489 3363 ft 240 kts 158°
2026-04-20 08:01 62.91645 28.07887 3088 ft 239 kts 158°
2026-04-20 08:01 62.90120 28.09270 2840 ft 232 kts 161°
2026-04-20 08:01 62.88614 28.09368 2752 ft 214 kts 201°
2026-04-20 08:01 62.87388 28.07710 2703 ft 204 kts 218°
2026-04-20 08:02 62.86398 28.05529 2697 ft 200 kts 237°
2026-04-20 08:02 62.85726 28.02925 2694 ft 191 kts 246°
2026-04-20 08:02 62.85197 28.00343 2696 ft 185 kts 249°
2026-04-20 08:02 62.84898 27.97630 2578 ft 184 kts 276°
2026-04-20 08:03 62.85304 27.95016 2401 ft 183 kts 307°
2026-04-20 08:03 62.86286 27.93289 2232 ft 182 kts 331°
2026-04-20 08:03 62.87404 27.92074 2209 ft 177 kts 336°
2026-04-20 08:03 62.88532 27.90995 2206 ft 175 kts 337°
2026-04-20 08:04 62.89592 27.90016 2265 ft 156 kts 336°
2026-04-20 08:04 62.90548 27.89132 2180 ft 148 kts 337°
2026-04-20 08:04 62.91501 27.88259 2002 ft 148 kts 337°
2026-04-20 08:04 62.92445 27.87392 1816 ft 148 kts 336°
2026-04-20 08:05 62.93395 27.86519 1623 ft 149 kts 336°
2026-04-20 08:05 62.94247 27.85729 1487 ft 119 kts 338°
2026-04-20 08:05 62.94982 27.85062 1311 ft 113 kts 336°
2026-04-20 08:05 62.95708 27.84392 1150 ft 112 kts 336°
2026-04-20 08:06 62.96421 27.83736 995 ft 112 kts 336°
2026-04-20 08:06 62.97148 27.83067 861 ft 113 kts 336°
2026-04-20 08:06 62.97870 27.82405 687 ft 110 kts 337°
2026-04-20 08:06 62.98563 27.81765 540 ft 107 kts 339°
2026-04-20 08:07 62.99237 27.81157 410 ft 102 kts 334°
2026-04-20 08:07 62.99844 27.80578 305 ft 84 kts 336°
2026-04-20 08:07 63.00286 27.80166 296 ft 56 kts 337°
2026-04-20 08:07 63.00572 27.79899 302 ft 42 kts 338°
2026-04-20 08:08 63.00685 27.79626 306 ft 22 kts 248°
2026-04-20 08:08 63.00682 27.79361 309 ft 17 kts 331°
2026-04-20 08:08 63.00792 27.79253 307 ft 17 kts 338°
2026-04-20 08:08 63.00909 27.79143 305 ft 19 kts 337°
2026-04-20 08:09 63.01034 27.79033 303 ft 19 kts 346°
2026-04-20 08:09 63.01150 27.78931 302 ft 17 kts 306°
2026-04-20 08:09 63.01122 27.78713 297 ft 12 kts 213°
2026-04-20 08:09 63.01102 27.78762 298 ft 0 kts 354°
2026-04-20 08:13 63.01105 27.78761 298 ft 0 kts 353°
2026-04-20 08:14 63.01124 27.78762 298 ft 5 kts 13°
2026-04-20 08:14 63.01156 27.78830 300 ft 7 kts 64°
2026-04-20 08:14 63.01147 27.78946 302 ft 9 kts 131°
2026-04-20 08:14 63.01081 27.79009 303 ft 12 kts 166°
2026-04-20 08:15 63.00983 27.79077 303 ft 16 kts 156°
2026-04-20 08:15 63.00883 27.79169 305 ft 15 kts 156°
2026-04-20 08:15 63.00789 27.79256 307 ft 14 kts 156°
2026-04-20 08:15 63.00700 27.79340 309 ft 13 kts 159°
2026-04-20 08:16 63.00603 27.79435 307 ft 17 kts 154°
2026-04-20 08:16 63.00480 27.79545 306 ft 20 kts 155°
2026-04-20 08:16 63.00359 27.79656 303 ft 17 kts 157°
2026-04-20 08:16 63.00255 27.79753 301 ft 15 kts 159°
2026-04-20 08:17 63.00161 27.79839 300 ft 14 kts 155°
2026-04-20 08:17 63.00113 27.79886 299 ft 0 kts 158°